Time,TemperatureF,DewpointF,PressureIn,WindDirection,WindDirectionDegrees,WindSpeedMPH,WindSpeedGustMPH,Humidity,HourlyPrecipIn,Conditions,Clouds,dailyrainin,SoftwareType,DateUTC
2013-12-23 00:10:00,16.4,14.0,30.27,WNW,296,3.0,-999.0,88,-99.99,,,0.00,weatherlink.com 1.10,2013-12-23 06:10:00,
2013-12-23 00:25:00,16.5,14.0,30.27,WNW,291,1.0,10.0,88,0.00,,,0.00,weatherlink.com 1.10,2013-12-23 06:25:00,
2013-12-23 00:40:00,16.5,14.0,30.28,WNW,291,3.0,11.0,88,0.00,,,0.00,weatherlink.com 1.10,2013-12-23 06:40:00,
2013-12-23 00:55:00,16.5,14.0,30.28,WNW,284,1.0,7.0,88,0.00,,,0.00,weatherlink.com 1.10,2013-12-23 06:55:00,
2013-12-23 01:10:00,16.3,13.0,30.28,WNW,293,3.0,7.0,88,0.00,,,0.00,weatherlink.com 1.10,2013-12-23 07:10:00,
2013-12-23 01:25:00,16.4,14.0,30.29,WSW,257,2.0,9.0,88,0.00,,,0.00,weatherlink.com 1.10,2013-12-23 07:25:00,
2013-12-23 01:40:00,16.2,13.0,30.30,NW,312,4.0,8.0,88,0.00,,,0.00,weatherlink.com 1.10,2013-12-23 07:40:00,
2013-12-23 01:55:00,16.1,13.0,30.30,WNW,284,3.0,7.0,88,0.00,,,0.00,weatherlink.com 1.10,2013-12-23 07:55:00,
2013-12-23 02:10:00,16.0,13.0,30.30,NW,316,1.0,6.0,88,0.00,,,0.00,weatherlink.com 1.10,2013-12-23 08:10:00,
2013-12-23 02:25:00,15.4,12.0,30.31,WNW,297,2.0,10.0,87,0.00,,,0.00,weatherlink.com 1.10,2013-12-23 08:25:00,
2013-12-23 02:40:00,14.5,11.0,30.31,West,277,4.0,5.0,87,0.00,,,0.00,weatherlink.com 1.10,2013-12-23 08:40:00,
2013-12-23 02:55:00,14.1,11.0,30.32,West,274,0.0,6.0,87,0.00,,,0.00,weatherlink.com 1.10,2013-12-23 08:55:00,
2013-12-23 03:10:00,13.2,10.0,30.33,WNW,287,7.0,8.0,87,0.00,,,0.00,weatherlink.com 1.10,2013-12-23 09:10:00,
2013-12-23 03:25:00,12.1,9.0,30.34,NW,324,5.0,13.0,87,0.00,,,0.00,weatherlink.com 1.10,2013-12-23 09:25:00,
2013-12-23 03:40:00,11.0,8.0,30.35,West,273,4.0,8.0,87,0.00,,,0.00,weatherlink.com 1.10,2013-12-23 09:40:00,
2013-12-23 03:56:00,9.5,6.0,30.36,West,266,5.0,9.0,86,0.00,,,0.00,weatherlink.com 1.10,2013-12-23 09:56:00,
2013-12-23 04:11:00,8.3,5.0,30.36,WNW,301,2.0,10.0,86,0.00,,,0.00,weatherlink.com 1.10,2013-12-23 10:11:00,
2013-12-23 04:26:00,7.2,4.0,30.37,NW,304,2.0,8.0,86,0.00,,,0.00,weatherlink.com 1.10,2013-12-23 10:26:00,
2013-12-23 04:41:00,6.5,3.0,30.37,West,277,3.0,7.0,86,0.00,,,0.00,weatherlink.com 1.10,2013-12-23 10:41:00,
2013-12-23 04:56:00,5.8,3.0,30.38,NW,317,1.0,7.0,86,0.00,,,0.00,weatherlink.com 1.10,2013-12-23 10:56:00,
2013-12-23 05:11:00,5.2,2.0,30.39,WNW,287,3.0,8.0,86,0.00,,,0.00,weatherlink.com 1.10,2013-12-23 11:11:00,
2013-12-23 05:26:00,4.7,1.0,30.39,West,278,3.0,9.0,86,0.00,,,0.00,weatherlink.com 1.10,2013-12-23 11:26:00,
2013-12-23 05:41:00,4.2,1.0,30.39,West,263,4.0,8.0,85,0.00,,,0.00,weatherlink.com 1.10,2013-12-23 11:41:00,
2013-12-23 05:56:00,3.7,0.0,30.40,WNW,290,2.0,6.0,85,0.00,,,0.00,weatherlink.com 1.10,2013-12-23 11:56:00,
2013-12-23 06:11:00,3.4,0.0,30.41,WSW,239,0.0,7.0,85,0.00,,,0.00,weatherlink.com 1.10,2013-12-23 12:11:00,
2013-12-23 06:26:00,3.0,-1.0,30.42,WNW,298,0.0,6.0,85,0.00,,,0.00,weatherlink.com 1.10,2013-12-23 12:26:00,
2013-12-23 06:41:00,2.6,-1.0,30.44,NW,325,5.0,7.0,85,0.00,,,0.00,weatherlink.com 1.10,2013-12-23 12:41:00,
2013-12-23 06:56:00,2.3,-1.0,30.44,NW,317,3.0,8.0,85,0.00,,,0.00,weatherlink.com 1.10,2013-12-23 12:56:00,
2013-12-23 07:11:00,2.1,-1.0,30.45,West,269,0.0,5.0,85,0.00,,,0.00,weatherlink.com 1.10,2013-12-23 13:11:00,
2013-12-23 07:26:00,1.9,-2.0,30.45,West,276,4.0,7.0,85,0.00,,,0.00,weatherlink.com 1.10,2013-12-23 13:26:00,
2013-12-23 07:41:00,1.8,-2.0,30.45,WNW,283,1.0,7.0,85,0.00,,,0.00,weatherlink.com 1.10,2013-12-23 13:41:00,
2013-12-23 07:56:00,2.2,-1.0,30.46,West,276,3.0,6.0,85,0.00,,,0.00,weatherlink.com 1.10,2013-12-23 13:56:00,
2013-12-23 08:11:00,2.4,-1.0,30.48,WNW,293,3.0,8.0,84,0.00,,,0.00,weatherlink.com 1.10,2013-12-23 14:11:00,
2013-12-23 08:26:00,2.9,-1.0,30.48,WNW,297,3.0,6.0,84,0.00,,,0.00,weatherlink.com 1.10,2013-12-23 14:26:00,
2013-12-23 08:41:00,3.2,-1.0,30.49,West,276,4.0,10.0,82,0.00,,,0.00,weatherlink.com 1.10,2013-12-23 14:41:00,
2013-12-23 08:56:00,3.3,-1.0,30.49,WNW,295,3.0,9.0,82,0.00,,,0.00,weatherlink.com 1.10,2013-12-23 14:56:00,
2013-12-23 09:11:00,3.2,-1.0,30.49,WSW,240,3.0,8.0,82,0.00,,,0.00,weatherlink.com 1.10,2013-12-23 15:11:00,
2013-12-23 09:26:00,3.6,-1.0,30.51,WNW,287,5.0,9.0,81,0.00,,,0.00,weatherlink.com 1.10,2013-12-23 15:26:00,
2013-12-23 09:42:00,3.5,-1.0,30.51,WSW,250,6.0,10.0,80,0.00,,,0.00,weatherlink.com 1.10,2013-12-23 15:42:00,
2013-12-23 09:57:00,3.7,-1.0,30.52,West,273,7.0,12.0,81,0.00,,,0.00,weatherlink.com 1.10,2013-12-23 15:57:00,
2013-12-23 10:12:00,3.7,-1.0,30.53,WNW,288,2.0,10.0,80,0.00,,,0.00,weatherlink.com 1.10,2013-12-23 16:12:00,
2013-12-23 10:27:00,4.1,-1.0,30.52,West,281,6.0,11.0,80,0.00,,,0.00,weatherlink.com 1.10,2013-12-23 16:27:00,
2013-12-23 10:42:00,4.7,-1.0,30.53,NW,308,4.0,9.0,79,0.00,,,0.00,weatherlink.com 1.10,2013-12-23 16:42:00,
2013-12-23 10:57:00,4.3,-1.0,30.52,WNW,291,3.0,9.0,79,0.00,,,0.00,weatherlink.com 1.10,2013-12-23 16:57:00,
2013-12-23 11:12:00,4.0,-1.0,30.52,WNW,288,1.0,7.0,79,0.00,,,0.00,weatherlink.com 1.10,2013-12-23 17:12:00,
2013-12-23 11:27:00,4.9,0.0,30.52,West,271,2.0,10.0,80,0.00,,,0.00,weatherlink.com 1.10,2013-12-23 17:27:00,
2013-12-23 11:42:00,5.1,0.0,30.51,WNW,291,3.0,7.0,78,0.00,,,0.00,weatherlink.com 1.10,2013-12-23 17:42:00,
2013-12-23 11:57:00,5.6,0.0,30.51,West,277,3.0,6.0,79,0.00,,,0.00,weatherlink.com 1.10,2013-12-23 17:57:00,
2013-12-23 12:12:00,6.2,1.0,30.52,West,281,5.0,7.0,80,0.00,,,0.00,weatherlink.com 1.10,2013-12-23 18:12:00,
2013-12-23 12:27:00,6.2,1.0,30.51,West,266,6.0,10.0,78,0.00,,,0.00,weatherlink.com 1.10,2013-12-23 18:27:00,
2013-12-23 12:42:00,6.5,1.0,30.51,NW,311,6.0,10.0,78,0.00,,,0.00,weatherlink.com 1.10,2013-12-23 18:42:00,
2013-12-23 12:57:00,6.1,1.0,30.51,West,274,3.0,10.0,79,0.00,,,0.00,weatherlink.com 1.10,2013-12-23 18:57:00,
2013-12-23 13:12:00,6.5,1.0,30.51,West,269,5.0,11.0,79,0.00,,,0.00,weatherlink.com 1.10,2013-12-23 19:12:00,
2013-12-23 13:27:00,6.4,1.0,30.51,WNW,292,5.0,11.0,78,0.00,,,0.00,weatherlink.com 1.10,2013-12-23 19:27:00,
2013-12-23 13:42:00,6.7,2.0,30.51,West,260,6.0,10.0,79,0.00,,,0.00,weatherlink.com 1.10,2013-12-23 19:42:00,
2013-12-23 13:57:00,7.1,2.0,30.52,WNW,294,3.0,10.0,78,0.00,,,0.00,weatherlink.com 1.10,2013-12-23 19:57:00,
2013-12-23 14:12:00,7.3,2.0,30.52,NW,309,3.0,9.0,78,0.00,,,0.00,weatherlink.com 1.10,2013-12-23 20:12:00,
2013-12-23 14:27:00,7.7,2.0,30.52,West,281,4.0,7.0,78,0.00,,,0.00,weatherlink.com 1.10,2013-12-23 20:27:00,
2013-12-23 14:42:00,7.2,1.0,30.52,WNW,297,2.0,10.0,77,0.00,,,0.00,weatherlink.com 1.10,2013-12-23 20:42:00,
2013-12-23 14:57:00,7.4,2.0,30.52,West,280,1.0,7.0,78,0.00,,,0.00,weatherlink.com 1.10,2013-12-23 20:57:00,
2013-12-23 15:12:00,7.3,2.0,30.52,West,271,4.0,8.0,79,0.00,,,0.00,weatherlink.com 1.10,2013-12-23 21:12:00,
2013-12-23 15:27:00,7.1,2.0,30.53,NW,319,1.0,8.0,80,0.00,,,0.00,weatherlink.com 1.10,2013-12-23 21:27:00,
2013-12-23 15:42:00,6.6,1.0,30.53,WNW,291,1.0,11.0,78,0.00,,,0.00,weatherlink.com 1.10,2013-12-23 21:42:00,
2013-12-23 15:57:00,5.8,0.0,30.54,WNW,302,3.0,12.0,77,0.00,,,0.00,weatherlink.com 1.10,2013-12-23 21:57:00,
2013-12-23 16:12:00,5.2,-1.0,30.54,WNW,302,5.0,9.0,77,0.00,,,0.00,weatherlink.com 1.10,2013-12-23 22:12:00,
2013-12-23 16:27:00,4.6,-1.0,30.55,WNW,284,3.0,10.0,77,0.00,,,0.00,weatherlink.com 1.10,2013-12-23 22:27:00,
2013-12-23 16:42:00,4.1,-2.0,30.55,West,271,3.0,7.0,77,0.00,,,0.00,weatherlink.com 1.10,2013-12-23 22:42:00,
2013-12-23 16:57:00,3.8,-2.0,30.55,West,271,4.0,11.0,78,0.00,,,0.00,weatherlink.com 1.10,2013-12-23 22:57:00,
2013-12-23 17:12:00,3.5,-2.0,30.56,West,273,4.0,8.0,78,0.00,,,0.00,weatherlink.com 1.10,2013-12-23 23:12:00,
2013-12-23 17:27:00,3.1,-2.0,30.57,WNW,287,4.0,7.0,78,0.00,,,0.00,weatherlink.com 1.10,2013-12-23 23:27:00,
2013-12-23 17:42:00,2.7,-2.0,30.57,West,259,3.0,10.0,79,0.00,,,0.00,weatherlink.com 1.10,2013-12-23 23:42:00,
2013-12-23 17:57:00,2.0,-3.0,30.58,NW,305,4.0,7.0,79,0.00,,,0.00,weatherlink.com 1.10,2013-12-23 23:57:00,
2013-12-23 18:12:00,1.6,-4.0,30.58,WNW,291,3.0,8.0,78,0.00,,,0.00,weatherlink.com 1.10,2013-12-24 00:12:00,
2013-12-23 18:27:00,1.3,-4.0,30.58,NW,318,1.0,8.0,78,0.00,,,0.00,weatherlink.com 1.10,2013-12-24 00:27:00,
2013-12-23 18:42:00,1.1,-5.0,30.58,West,277,2.0,8.0,77,0.00,,,0.00,weatherlink.com 1.10,2013-12-24 00:42:00,
2013-12-23 18:57:00,0.8,-5.0,30.59,West,266,6.0,8.0,77,0.00,,,0.00,weatherlink.com 1.10,2013-12-24 00:57:00,
2013-12-23 19:12:00,0.7,-5.0,30.59,WSW,253,2.0,7.0,77,0.00,,,0.00,weatherlink.com 1.10,2013-12-24 01:12:00,
2013-12-23 19:27:00,0.2,-5.0,30.59,West,264,6.0,6.0,77,0.00,,,0.00,weatherlink.com 1.10,2013-12-24 01:27:00,
2013-12-23 19:42:00,-0.1,-6.0,30.59,NNW,328,1.0,5.0,77,0.00,,,0.00,weatherlink.com 1.10,2013-12-24 01:42:00,
2013-12-23 19:57:00,0.0,-6.0,30.59,NW,314,0.0,7.0,77,0.00,,,0.00,weatherlink.com 1.10,2013-12-24 01:57:00,
2013-12-23 20:12:00,0.6,-5.0,30.59,WNW,288,0.0,7.0,76,0.00,,,0.00,weatherlink.com 1.10,2013-12-24 02:12:00,
2013-12-23 20:28:00,0.8,-5.0,30.59,NW,326,1.0,7.0,75,0.00,,,0.00,weatherlink.com 1.10,2013-12-24 02:28:00,
2013-12-23 20:43:00,0.7,-6.0,30.59,WNW,288,1.0,6.0,74,0.00,,,0.00,weatherlink.com 1.10,2013-12-24 02:43:00,
2013-12-23 20:58:00,0.5,-6.0,30.60,West,281,1.0,6.0,74,0.00,,,0.00,weatherlink.com 1.10,2013-12-24 02:58:00,
2013-12-23 21:13:00,0.4,-6.0,30.59,WNW,300,1.0,5.0,74,0.00,,,0.00,weatherlink.com 1.10,2013-12-24 03:13:00,
2013-12-23 21:28:00,0.4,-6.0,30.59,WNW,295,2.0,5.0,74,0.00,,,0.00,weatherlink.com 1.10,2013-12-24 03:28:00,
2013-12-23 21:43:00,0.4,-6.0,30.59,West,271,1.0,5.0,74,0.00,,,0.00,weatherlink.com 1.10,2013-12-24 03:43:00,
2013-12-23 21:58:00,0.1,-6.0,30.59,West,281,1.0,5.0,74,0.00,,,0.00,weatherlink.com 1.10,2013-12-24 03:58:00,
2013-12-23 22:13:00,-0.1,-6.0,30.59,WNW,290,2.0,7.0,75,0.00,,,0.00,weatherlink.com 1.10,2013-12-24 04:13:00,
2013-12-23 22:28:00,-0.3,-7.0,30.59,WNW,293,2.0,5.0,74,0.00,,,0.00,weatherlink.com 1.10,2013-12-24 04:28:00,
2013-12-23 22:43:00,-0.5,-7.0,30.60,NW,315,2.0,4.0,75,0.00,,,0.00,weatherlink.com 1.10,2013-12-24 04:43:00,
2013-12-23 22:58:00,-0.6,-7.0,30.60,West,270,2.0,5.0,75,0.00,,,0.00,weatherlink.com 1.10,2013-12-24 04:58:00,
2013-12-23 23:13:00,-0.6,-7.0,30.60,West,259,3.0,4.0,75,0.00,,,0.00,weatherlink.com 1.10,2013-12-24 05:13:00,
2013-12-23 23:28:00,-0.7,-7.0,30.60,West,270,1.0,3.0,75,0.00,,,0.00,weatherlink.com 1.10,2013-12-24 05:28:00,
2013-12-23 23:43:00,-0.8,-7.0,30.61,West,269,1.0,4.0,75,0.00,,,0.00,weatherlink.com 1.10,2013-12-24 05:43:00,
2013-12-23 23:58:00,-0.8,-7.0,30.61,WNW,290,0.0,5.0,75,0.00,,,0.00,weatherlink.com 1.10,2013-12-24 05:58:00,